User: anonymous   Login
Location: Unspecified
(0.0000°N, 0.0000°E)
Time: 14:41:13
(UTC+00:00)
Language:

Alouette 1 - Orbit

View from above orbital plane
View from above orbital plane
View from above satellite
View from above satellite

Ground track
Ground track

The orbit data is extracted from the following two-line orbital elements,

1 00424U 62049A   14297.10465337  .00000102  00000-0  10751-3 0  5494
2 00424 080.4651 143.2211 0023457 049.5717 099.1672 13.68964276599148
Epoch (UTC): 24 October 2014 02:30:42
Eccentricity: 0.0023457
inclination: 80.4651°
perigee height: 986 km
apogee height: 1020 km
right ascension of ascending node: 143.2211°
argument of perigee: 49.5717°
revolutions per day: 13.68964276
mean anomaly at epoch: 99.1672°
orbit number at epoch: 59914

The dashed part of the orbit path shows where the satellite is in the earth's shadow,  

DLR